Location: Glen Waverley
(37.8830°S, 145.1670°E)
Time: 06:49:29
(UTC+11:00)

ISS - Visible Passes

Search period start: 23 October 2021 00:00
Search period end: 02 November 2021 00:00
Orbit: 417 x 423 km, 51.6° (Epoch: 22 October)

Date Brightness Start Highest point End Pass type
(mag) Time Alt. Az. Time Alt. Az. Time Alt. Az.
23 Oct -0.5 20:47:37 10° SSW 20:48:06 10° SSW 20:48:37 10° S visible
25 Oct -0.7 22:27:24 10° SSW 22:28:29 13° S 22:28:29 13° S visible
26 Oct -0.8 21:40:41 10° S 21:41:42 11° SSE 21:42:44 10° SSE visible
27 Oct -1.0 22:29:03 10° SSW 22:30:28 18° S 22:30:28 18° S visible
28 Oct -1.5 21:42:03 10° SSW 21:44:30 18° SSE 21:44:59 17° SE visible
29 Oct -1.1 20:55:07 10° SSW 20:56:59 14° SSE 20:58:50 10° SE visible
29 Oct -1.3 22:30:57 10° SW 22:32:29 24° SW 22:32:29 24° SW visible
30 Oct -2.7 21:43:47 10° SW 21:47:02 37° SSE 21:47:02 37° SSE visible
31 Oct -2.0 20:56:41 10° SSW 20:59:37 25° SSE 21:01:36 15° ESE visible
31 Oct -1.2 22:33:16 10° WSW 22:34:35 20° WSW 22:34:35 20° WSW visible
01 Nov -3.7 21:45:50 10° SW 21:49:11 73° WNW 21:49:11 73° WNW visible
